Location: Rehoboth Beach
(38.7438°N, 75.1341°W)
Time: 06:47:15
(UTC-04:00)

Hubble Space Telescope - Visible Passes

Search period start: 23 May 2017 00:00
Search period end: 02 June 2017 00:00
Orbit: 538 x 541 km, 28.5° (Epoch: 22 May)

Date Brightness Start Highest point End Pass type
(mag) Time Alt. Az. Time Alt. Az. Time Alt. Az.
23 May 2.8 04:23:17 13° S 04:23:17 13° S 04:24:29 10° SSE visible
29 May 2.8 22:06:47 10° SW 22:08:03 15° SSW 22:08:03 15° SSW visible
30 May 2.4 21:56:31 10° SW 21:58:52 19° S 21:58:52 19° S visible
31 May 2.3 21:46:19 10° SW 21:49:20 20° S 21:49:32 19° S visible
01 Jun 2.3 21:36:10 10° SW 21:39:10 19° S 21:40:06 18° SSE visible
